Location: ??????
(56.0120°N, 39.1740°E)
Time: 20:23:23
(UTC+00:00)

Cosmos 1802 Rocket - Pass Details

Date: 14 April 2026
Orbit: 952 x 1012 km, 82.9° (Epoch: 16 May)

Event Time Altitude Azimuth Distance (km) Brightness Sun altitude
Exits shadow 21:34:58 50° 210° (SSW) 1,254 4.2 -24.3°
Maximum altitude 21:36:45 76° 283° (WNW) 1,024 4.0 -24.3°
Drops below altitude 10° 21:43:04 10° 10° (N) 2,746 7.4 -24.2°
Sets 21:45:35 0° 12° (NNE) 3,689 8.4 -24.2°
